AKST,Max TemperatureF,Mean TemperatureF,Min TemperatureF,Max Dew PointF,MeanDew PointF,Min DewpointF,Max Humidity, Mean Humidity, Min Humidity, Max Sea Level PressureIn, Mean Sea Level PressureIn, Min Sea Level PressureIn, Max VisibilityMiles, Mean VisibilityMiles, Min VisibilityMiles, Max Wind SpeedMPH, Mean Wind SpeedMPH, Max Gust SpeedMPH,PrecipitationIn, CloudCover, Events, WindDirDegrees
2014-1-1,41,39,37,34,32,27,83,76,65,29.53,29.17,29.01,10,9,4,17,12,26,0.29,8,Rain,124
2014-1-2,37,34,30,29,26,25,82,73,65,30.06,29.83,29.57,10,10,10,13,7,17,0.00,5,,239
2014-1-3,41,36,32,36,32,27,89,82,72,30.22,30.16,30.08,10,10,7,7,2,,0.04,6,Rain,46
2014-1-4,44,39,34,35,30,29,85,67,58,30.12,29.66,29.35,10,9,5,33,13,46,0.23,8,Rain,64
2014-1-5,46,44,41,34,33,31,71,64,58,29.66,29.54,29.34,10,10,10,13,6,22,0.00,7,Rain,121
2014-1-6,43,36,30,34,31,27,85,72,65,29.68,29.65,29.61,10,10,5,15,8,22,0.10,3,Rain,117
2014-1-7,42,38,35,32,29,26,79,71,53,29.63,29.47,29.31,10,10,10,10,1,,0.00,6,,51
2014-1-8,41,37,33,34,31,28,87,82,65,29.30,29.26,29.24,10,10,6,9,4,,0.12,8,Rain-Snow,275
2014-1-9,36,33,30,30,29,26,87,81,73,29.40,29.27,29.22,10,10,5,5,2,,0.00,8,Snow,25
2014-1-10,33,30,28,28,26,24,93,83,75,29.44,29.39,29.30,10,9,2,7,1,,0.02,7,Snow,40
2014-1-11,30,26,21,24,20,15,85,74,63,29.30,29.15,29.06,10,10,10,13,4,,0.00,6,,45
2014-1-12,28,26,23,25,22,17,88,81,69,29.39,29.17,29.03,10,4,0,9,2,,0.28,8,Fog-Snow,42
2014-1-13,37,30,23,32,26,19,89,81,62,29.52,29.28,28.95,10,7,1,13,5,,0.10,6,Snow,49
2014-1-14,41,37,33,34,29,24,87,74,57,29.62,29.04,28.74,10,8,1,24,8,36,0.16,7,Rain-Snow,243
2014-1-15,46,38,30,34,29,24,79,67,57,29.66,29.57,29.47,10,10,6,10,4,22,0.05,6,Rain,31
2014-1-16,45,38,32,34,31,28,93,81,60,29.64,29.46,29.33,10,10,7,14,6,,0.05,3,Rain,66
2014-1-17,48,45,42,39,35,32,82,69,56,29.39,29.13,29.05,10,9,4,29,18,51,0.82,5,Rain,87
2014-1-18,44,37,30,34,31,25,87,75,58,29.79,29.41,29.04,10,9,1,17,10,25,0.10,7,Rain-Snow,206
2014-1-19,45,36,28,33,29,23,82,67,56,29.81,29.69,29.60,10,10,9,31,10,45,0.05,6,Rain,64
2014-1-20,50,48,45,35,33,30,68,59,50,29.72,29.65,29.48,10,10,10,18,11,32,0.02,6,Rain,92
2014-1-21,46,41,36,36,33,31,83,69,56,29.63,29.46,29.29,10,10,6,12,7,21,0.03,6,Rain,90
2014-1-22,50,42,35,37,34,31,86,70,57,29.61,29.47,29.42,10,10,10,20,5,28,0.03,7,Rain,79
2014-1-23,53,46,39,39,37,35,86,71,55,29.71,29.58,29.42,10,10,9,10,3,18,0.04,5,Rain,59
2014-1-24,50,44,37,38,34,31,83,65,48,30.07,29.87,29.49,10,10,8,10,4,21,0.06,4,Rain,166
2014-1-25,55,46,37,37,32,29,86,58,38,30.03,29.94,29.79,10,10,10,29,7,44,0.00,2,Rain,63
2014-1-26,53,50,46,38,35,28,68,56,38,29.90,29.82,29.70,10,10,10,28,19,45,0.01,4,Rain,72
2014-1-27,55,50,43,38,32,26,66,52,32,29.83,29.66,29.48,10,10,7,31,14,38,0.05,4,Rain,86
2014-1-28,45,40,35,33,31,28,76,67,60,29.98,29.93,29.85,10,10,10,14,5,,0.00,4,Rain,71
2014-1-29,45,41,37,34,33,31,82,73,63,30.14,30.03,29.96,10,10,9,14,6,,0.00,6,Rain,70
2014-1-30,39,34,28,33,29,26,89,83,75,30.22,30.19,30.15,10,10,2,4,0,,0.00,1,,57
2014-1-31,37,32,27,30,26,22,88,80,75,30.29,30.23,30.19,10,10,10,5,2,,0.00,1,,65